Regional Weather Roundup
Issued by NWS Columbia, SC

Current Version | Previous Version | Text Only | Print | Product List | Glossary On
Versions: 1 2 3 4 5 6 7 8 9 10 11 12 13 14 15 16 17 18 19 20 21 22 23 24 25 26 27 28 29 30 31 32 33 34 35 36 37 38 39 40 41 42 43 44 45 46 47 48 49 50
000
ASUS42 KCAE 021910
RWRCAE
REGIONAL WEATHER ROUNDUP
NATIONAL WEATHER SERVICE COLUMBIA SC
300 PM EDT TUE SEP 02 2014

NOTE: "FAIR" INDICATES FEW OR NO CLOUDS BELOW 12,000 FEET WITH NO
SIGNIFICANT WEATHER AND/OR OBSTRUCTIONS TO VISIBILITY.

NOT ALL STATIONS ARE QUALITY CONTROLLED BY THE NATIONAL
WEATHER SERVICE. USE DATA WITH CAUTION...ESPECIALLY
DEWPOINT OBSERVATIONS.

SCZ001>056-GAZ040-063>065-077-022000-
...UPSTATE SOUTH CAROLINA...

CITY           SKY/WX    TMP DP  RH WIND       PRES   REMARKS
ANDERSON       SUNNY     93  69  45 W10       30.04F HX  98
LIBERTY        FAIR      93  89  89 W9        30.05F HX 133
SPARTANBURG    FAIR      95  66  38 SW3       30.03F HX  98
CLEMSON        MOSUNNY   94  67  41 VRB6      30.05F HX  97
GREENVILLE     LGT RAIN  93  67  42 SW8       30.05F HX  96
GREENWOOD      MOSUNNY   94  66  39 SW7       30.03F HX  97
GREER          SUNNY     92  69  47 MISG      30.03F HX  97
ROCK HILL      MOSUNNY   93  69  45 SW7       30.02F HX  98
LAURENS        FAIR      91  52  25 NW7       30.03F


...CENTRAL SOUTH CAROLINA...

CITY           SKY/WX    TMP DP  RH WIND       PRES   REMARKS
COLUMBIA APT   MOSUNNY   96  61  31 S10       30.00F HX  96
COLUMBIA OWENS SUNNY     95  67  39 SW8       30.02F HX  99
DARLINGTON     MOSUNNY   97  68  38 SW5       30.01F HX 101
FLORENCE       MOSUNNY   98  71  41 S12       30.01F HX 106
MCENTIRE ANGB  MOSUNNY   95  70  43 VRB5      30.02F HX 101
ORANGEBURG     MOSUNNY   94  69  44 W7        30.02F HX  99
SUMTER SHAW    MOSUNNY   96  71  44 SW10      30.00F HX 104
NEWBERRY       FAIR      97  59  28 SW8       30.03F HX  96
AIKEN          FAIR      95  72  46 SW6       30.05F HX 103
BARNWELL       FAIR      93  75  55 N6        30.03F HX 104
MANNING        FAIR      90  77  66 S3        30.02F HX 102
CAMDEN         FAIR      93  68  43 S6        30.03F HX  97
LANCASTER      FAIR      91  68  46 S13       30.02F HX  95
WINNSBORO      FAIR      95  63  34 SW9       30.02F HX  96


...EASTERN AND COASTAL SOUTH CAROLINA...

CITY           SKY/WX    TMP DP  RH WIND       PRES   REMARKS
MYRTLE BEACH   MOSUNNY   90  75  62 S15       30.06F HX 100
N MYRTLE BCH   SUNNY     87  75  67 S14       30.06F HX  96
CONWAY         FAIR      90  75  62 S8        30.04F HX 100
HARTSVILLE     FAIR      99  32   9 S8        30.03F
FLORENCE       MOSUNNY   98  71  41 S12       30.01F HX 106
DARLINGTON     MOSUNNY   97  68  38 SW5       30.01F HX 101
CHARLESTON APT PTSUNNY   93  71  48 S13       30.04F HX 100
MOUNT PLEASANT FAIR      90  73  58 SE10      30.05F HX  98
WALTERBORO     MOCLDY    91  66  43 E10       30.03F
BEAUFORT       PTSUNNY   89  76  65 S8        30.02F THUNDER HX 100


...EASTERN GEORGIA...

CITY           SKY/WX    TMP DP  RH WIND       PRES   REMARKS
AUGUSTA BUSH F MOSUNNY   94  73  50 SE5       30.01F HX 103
AUGUSTA DANIEL MOSUNNY   93  70  46 W3        30.03F HX  99
THOMSON        SUNNY     94  76  56 NW7       30.07F HX 106
WASHINGTON     FAIR      97  77  52 W3        30.04F HX 112
CLAXTON        FAIR      88  79  74 CALM      30.03F HX 102
SYLVANIA       CLOUDY    79  75  86 SW5       30.04F
STATESBORO     PTSUNNY   86  72  61 NE9G20    30.02F THUNDER
SAVANNAH       TSTM      80  75  84 S7        30.02F


...SOUTHERN NORTH CAROLINA...

CITY           SKY/WX    TMP DP  RH WIND       PRES   REMARKS
CHARLOTTE      MOSUNNY   93  66  40 SW8       30.03F HX  96
MONROE         MOSUNNY   96  67  38 SW8G18    30.01F HX 100
WADESBORO      MOCLDY    95  63  34 CALM      30.00F HX  96
ROCKINGHAM     PTCLDY    86  66  50 SW22G31   30.02S
RUTHERFORDTON  MOSUNNY   91  70  49 W10       30.05F HX  96
ASHEVILLE      MOSUNNY   78  70  76 N3        30.12F

$$



USA.gov is the U.S. government's official web portal to all federal, state and local government web resources and services.